Change the Weather History Date:

Sunday, October 13, 2013

  Actual Average Record
Temperature  
Mean Temperature 67 °F -  
Max Temperature 82 °F 74 °F 87 °F (2003)
Min Temperature 52 °F 51 °F 35 °F (2001)
Cooling Degree Days 2    
Growing Degree Days 17 (Base 50)    
Moisture  
Dew Point 43 °F    
Average Humidity 41    
Maximum Humidity 67    
Minimum Humidity 22    
Precipitation  
Precipitation 0.00 in - - ()
Sea Level Pressure  
Sea Level Pressure 30.10 in    
Wind  
Wind Speed 7 mph (South)    
Max Wind Speed 20 mph    
Max Gust Speed 28 mph    
Visibility 10 miles    
Events      
Averages and records for this station are not official NWS values.
T = Trace of Precipitation, MM = Missing Value Source: NWS Daily Summary

Daily Weather History Graph

Daily Weather History Graph

Search for Another Location

Airport or City:

Trip Planner

Search our weather history database for the weather conditions in past years. The results will help you decide how hot, cold, wet, or windy it might be!

Date:

Astronomy

Oct. 13, 2013 Rise Set
Actual Time 7:10 AM MDT 6:36 PM MDT
Civil Twilight 6:45 AM MDT 7:01 PM MDT
Nautical Twilight 6:16 AM MDT 7:30 PM MDT
Astronomical Twilight 5:48 AM MDT 7:58 PM MDT
Moon 3:14 PM MDT (10/13) 1:41 AM MDT (10/13)
Length of Visible Light 12h 16m
Length of Day
11h 26m
Waxing Gibbous, 70% of the Moon is Illuminated
Oct 13
Waxing Gibbous
Oct 18
Full
Oct 26
Last Quarter
Nov 3
New
Nov 9
First Quarter

Hourly Weather History & Observations

Time (MDT) Temp. Dew Point Humidity Pressure Visibility Wind Dir Wind Speed Gust Speed Precip Events Conditions
12:15 AM 64.2 °F 37.4 °F 37% 30.11 in 10.0 mi South 6.9 mph - N/A   Clear
12:35 AM 64.9 °F 37.8 °F 37% 30.11 in 10.0 mi SSE 8.1 mph - N/A   Clear
12:55 AM 63.1 °F 38.3 °F 40% 30.11 in 10.0 mi South 6.9 mph - N/A   Clear
1:15 AM 63.7 °F 38.5 °F 39% 30.11 in 10.0 mi SSE 6.9 mph - N/A   Clear
1:35 AM 63.1 °F 38.3 °F 40% 30.11 in 10.0 mi SSE 9.2 mph - N/A   Clear
1:55 AM 62.6 °F 38.5 °F 41% 30.11 in 10.0 mi SSE 8.1 mph - N/A   Clear
2:15 AM 61.7 °F 38.8 °F 43% 30.11 in 10.0 mi SSE 6.9 mph - N/A   Clear
2:35 AM 61.0 °F 39.2 °F 45% 30.11 in 10.0 mi SSE 4.6 mph - N/A   Clear
2:55 AM 56.7 °F 38.3 °F 50% 30.11 in 10.0 mi Calm Calm - N/A   Clear
3:15 AM 55.8 °F 38.3 °F 52% 30.11 in 10.0 mi Calm Calm - N/A   Clear
3:35 AM 52.9 °F 37.8 °F 56% 30.11 in 10.0 mi Calm Calm - N/A   Clear
3:55 AM 56.5 °F 38.8 °F 52% 30.10 in 10.0 mi South 3.5 mph - N/A   Clear
4:15 AM 52.2 °F 37.8 °F 58% 30.10 in 10.0 mi Calm Calm - N/A   Scattered Clouds
4:35 AM 56.5 °F 41.9 °F 58% 30.10 in 10.0 mi SSE 5.8 mph - N/A   Mostly Cloudy
4:55 AM 58.6 °F 42.6 °F 55% 30.11 in 10.0 mi SSE 5.8 mph - N/A   Mostly Cloudy
5:15 AM 60.1 °F 44.1 °F 55% 30.11 in 10.0 mi SSE 4.6 mph - N/A   Mostly Cloudy
5:35 AM 60.8 °F 44.8 °F 56% 30.12 in 10.0 mi SE 8.1 mph - N/A   Mostly Cloudy
5:55 AM 60.3 °F 44.8 °F 57% 30.12 in 10.0 mi SSE 5.8 mph - N/A   Mostly Cloudy
6:15 AM 59.2 °F 45.1 °F 60% 30.12 in 10.0 mi South 4.6 mph - N/A   Scattered Clouds
6:35 AM 59.2 °F 45.5 °F 60% 30.12 in 10.0 mi SSE 6.9 mph - N/A   Clear
6:55 AM 59.5 °F 45.9 °F 61% 30.12 in 10.0 mi SSE 5.8 mph - N/A   Clear
7:15 AM 58.1 °F 44.6 °F 61% 30.13 in 10.0 mi South 3.5 mph - N/A   Clear
7:35 AM 52.2 °F 41.4 °F 67% 30.13 in 10.0 mi Calm Calm - N/A   Clear
7:55 AM 52.3 °F 41.4 °F 66% 30.14 in 10.0 mi Calm Calm - N/A   Clear
8:15 AM 55.6 °F 42.8 °F 62% 30.14 in 10.0 mi SSE 3.5 mph - N/A   Clear
8:35 AM 61.3 °F 46.4 °F 58% 30.15 in 10.0 mi SSE 3.5 mph - N/A   Clear
8:55 AM 64.9 °F 46.6 °F 51% 30.16 in 10.0 mi SE 5.8 mph - N/A   Clear
9:15 AM 66.4 °F 46.9 °F 50% 30.16 in 10.0 mi ESE 6.9 mph - N/A   Clear
9:55 AM 68.9 °F 47.8 °F 47% 30.16 in 10.0 mi SE 8.1 mph - N/A   Clear
10:15 AM 70.2 °F 48.6 °F 46% 30.16 in 10.0 mi SE 9.2 mph - N/A   Clear
10:35 AM 72.3 °F 48.7 °F 43% 30.16 in 10.0 mi SE 5.8 mph - N/A   Clear
10:55 AM 72.9 °F 49.3 °F 43% 30.16 in 10.0 mi South 6.9 mph - N/A   Clear
11:15 AM 74.7 °F 49.8 °F 42% 30.16 in 10.0 mi SSE 10.4 mph - N/A   Clear
11:35 AM 74.8 °F 49.6 °F 41% 30.15 in 10.0 mi SSE 9.2 mph - N/A   Clear
11:55 AM 75.6 °F 48.7 °F 39% 30.14 in 10.0 mi SE 8.1 mph - N/A   Clear
12:15 PM 76.6 °F 47.8 °F 36% 30.14 in 10.0 mi SSE 8.1 mph - N/A   Clear
12:35 PM 75.9 °F 46.8 °F 36% 30.13 in 10.0 mi SE 5.8 mph - N/A   Clear
12:55 PM 77.2 °F 46.6 °F 34% 30.12 in 10.0 mi SSE 6.9 mph - N/A   Clear
1:15 PM 78.1 °F 47.3 °F 34% 30.12 in 10.0 mi SE 10.4 mph - N/A   Clear
1:35 PM 78.1 °F 46.9 °F 33% 30.10 in 10.0 mi SSE 9.2 mph 18.4 mph N/A   Clear
1:55 PM 78.1 °F 45.7 °F 32% 30.09 in 10.0 mi South 11.5 mph 17.3 mph N/A   Scattered Clouds
2:15 PM 79.2 °F 45.3 °F 30% 30.08 in 10.0 mi South 11.5 mph 21.9 mph N/A   Scattered Clouds
2:35 PM 80.6 °F 45.3 °F 29% 30.08 in 10.0 mi SSW 15.0 mph 18.4 mph N/A   Scattered Clouds
2:55 PM 80.8 °F 43.2 °F 26% 30.07 in 10.0 mi South 12.7 mph - N/A   Scattered Clouds
3:15 PM 81.1 °F 41.2 °F 24% 30.07 in 10.0 mi SSW 18.4 mph 27.6 mph N/A   Scattered Clouds
3:35 PM 81.1 °F 39.7 °F 23% 30.06 in 10.0 mi SW 17.3 mph - N/A   Scattered Clouds
3:55 PM 82.2 °F 40.6 °F 23% 30.06 in 10.0 mi SSW 16.1 mph 21.9 mph N/A   Clear
4:15 PM 81.7 °F 39.6 °F 22% 30.05 in 10.0 mi South 17.3 mph 23.0 mph N/A   Clear
4:35 PM 80.1 °F 39.0 °F 23% 30.04 in 10.0 mi SSW 12.7 mph 20.7 mph N/A   Clear
4:55 PM 80.8 °F 39.9 °F 23% 30.04 in 10.0 mi South 19.6 mph 24.2 mph N/A   Clear
5:15 PM 78.8 °F 40.3 °F 25% 30.04 in 10.0 mi South 13.8 mph 21.9 mph N/A   Scattered Clouds
5:35 PM 79.2 °F 40.3 °F 25% 30.04 in 10.0 mi South 13.8 mph - N/A   Scattered Clouds
5:55 PM 77.9 °F 39.9 °F 26% 30.04 in 10.0 mi South 10.4 mph - N/A   Clear
6:15 PM 75.7 °F 40.5 °F 28% 30.05 in 10.0 mi SSE 10.4 mph - N/A   Clear
6:35 PM 74.3 °F 40.1 °F 29% 30.04 in 10.0 mi South 9.2 mph - N/A   Clear
6:55 PM 73.8 °F 40.5 °F 30% 30.04 in 10.0 mi South 11.5 mph - N/A   Mostly Cloudy
7:15 PM 72.7 °F 40.6 °F 31% 30.05 in 10.0 mi South 8.1 mph - N/A   Scattered Clouds
7:35 PM 72.0 °F 40.6 °F 32% 30.06 in 10.0 mi South 9.2 mph - N/A   Scattered Clouds
7:55 PM 71.6 °F 41.0 °F 33% 30.06 in 10.0 mi South 8.1 mph - N/A   Scattered Clouds
8:15 PM 71.1 °F 40.6 °F 33% 30.06 in 10.0 mi South 6.9 mph - N/A   Mostly Cloudy
8:35 PM 70.7 °F 40.3 °F 33% 30.06 in 10.0 mi SSW 9.2 mph - N/A   Mostly Cloudy
8:55 PM 70.7 °F 40.6 °F 34% 30.07 in 10.0 mi SW 9.2 mph - N/A   Scattered Clouds
9:15 PM 72.0 °F 43.0 °F 35% 30.07 in 10.0 mi SW 12.7 mph - N/A   Clear
9:35 PM 72.5 °F 44.1 °F 36% 30.08 in 10.0 mi SW 13.8 mph - N/A   Clear
9:55 PM 71.8 °F 45.0 °F 38% 30.08 in 10.0 mi SW 11.5 mph - N/A   Clear
10:15 PM 71.2 °F 45.5 °F 40% 30.08 in 10.0 mi SW 11.5 mph - N/A   Clear
10:35 PM 70.9 °F 46.0 °F 41% 30.08 in 10.0 mi SW 13.8 mph - N/A   Clear
10:55 PM 70.3 °F 46.2 °F 42% 30.08 in 10.0 mi SW 12.7 mph - N/A   Clear
11:15 PM 70.0 °F 46.4 °F 43% 30.08 in 10.0 mi SW 9.2 mph - N/A   Clear
11:35 PM 69.3 °F 46.8 °F 45% 30.08 in 10.0 mi SSW 6.9 mph - N/A   Clear
11:55 PM 69.1 °F 46.9 °F 45% 30.09 in 10.0 mi SW 11.5 mph 18.4 mph N/A   Clear